Location: *
(60.1759°S, 155.0663°W)
Time: 21:34:57
(UTC+00:00)

UNK - Pass Details

Date: 17 September 2019
Orbit: 666 x 687 km, 98.1° (Epoch: 15 October)

Event Time Altitude Azimuth Distance (km) Brightness Sun altitude
Rises 13:09:59 0° 163° (SSE) 3,079 8.1 -23.1°
Reaches altitude 10° 13:12:16 10° 160° (SSE) 2,161 7.2 -22.9°
Maximum altitude 13:16:59 68° 76° (ENE) 750 4.0 -22.5°
Enters shadow 13:18:31 42° 7° (N) 995 4.3 -22.3°
